Regional Weather Roundup
Issued by NWS

Home | Current Version | Previous Version | Graphics & Text | Print | Product List | Glossary On
Versions: 1 2 3 4 5 6 7 8 9 10 11 12 13 14 15 16 17 18 19 20 21 22 23 24 25 26 27 28 29 30 31 32 33 34 35 36 37 38 39 40 41 42 43 44 45 46 47 48 49 50
000
ASUS43 KMPX 302101
RWRMN
WEATHER ROUNDUP FOR MINNESOTA
NATIONAL WEATHER SERVICE TWIN CITIES/CHANHASSEN MN
400 PM CDT TUE JUN 30 2015


NOTE: "FAIR" INDICATES FEW OR NO CLOUDS BELOW 12,000 FEET WITH NO
SIGNIFICANT WEATHER AND/OR OBSTRUCTIONS TO VISIBILITY. N/A MEANS
CURRENT SKY AND/OR WEATHER CONDITIONS ARE NOT AVAILABLE.

MNZ060>063-068>070-302200-
   Twin Cities Metro

CITY           SKY/WX    TMP DP  RH WIND       PRES   REMARKS
TWIN CITIES    PTSUNNY   76  55  48 NE9       29.92S
ST PAUL        PTSUNNY   76  56  49 N9        29.92S
CRYSTAL        PTSUNNY   78  56  46 VRB5      29.91S
BLAINE         PTSUNNY   75  57  53 NW7       29.93S
LAKEVILLE      PTSUNNY   73  57  56 N8        29.92S
EDEN PRAIRIE   CLOUDY    78  58  49 N9        29.91S
SOUTH ST PAUL  PTSUNNY   74  53  48 N6        29.92R
LAKE ELMO      FAIR      73  55  53 NE7       29.93S
$$
MNZ001>005-007-008-013>017-022>024-027-028-302200-
   Northwest Minnesota

CITY           SKY/WX    TMP DP  RH WIND       PRES   REMARKS
BEMIDJI        CLOUDY    73  54  50 E6        29.95S
HALLOCK        MOSUNNY   75  59  57 CALM      29.92S
ROSEAU         MOSUNNY   73  61  64 NE3       29.95F
WARROAD        SUNNY     70  55  60 NE8       29.96F
THIEF RVR FALL MOSUNNY   73  55  53 CALM      29.94F
CROOKSTON      PTSUNNY   75  55  50 E5        29.93S
FOSSTON        PTSUNNY   73  59  60 CALM      29.95F
DETROIT LAKES  CLOUDY    73  55  53 NE5       29.94F
MOORHEAD       CLOUDY    73  59  60 E3        29.92S
PARK RAPIDS    CLOUDY    75  53  46 VRB3      29.94F
MAHNOMEN       FAIR      73  52  47 E3        29.92F
$$
MNZ006-009>011-018-025>026-302200-
   North Central Minnesota

CITY           SKY/WX    TMP DP  RH WIND       PRES   REMARKS
BAUDETTE       SUNNY     73  50  44 CALM      29.96S
FLAG ISLAND    MOSUNNY   66  52  59 S3        29.96S
INTL FALLS     MOSUNNY   70  52  52 NE8       29.96F
WASKISH        MOSUNNY   75  55  50 W5        29.95S
BIG FORK       PTSUNNY   73  54  49 E3        29.96S
LONGVILLE      PTSUNNY   73  55  53 CALM      29.94F
GRAND RAPIDS   PTSUNNY   72  50  46 CALM      29.96S
CRANE LAKE     MOSUNNY   66  48  52 NW3       29.98S
COOK           MOSUNNY   70  48  46 CALM      29.96S
WALKER         FAIR      71  55  56 CALM      29.95S
$$
MNZ012-019>021-037-302200-
   Northeast Minnesota

CITY           SKY/WX    TMP DP  RH WIND       PRES   REMARKS
DULUTH         MOSUNNY   61  44  53 SE10      29.98S
ELY            SUNNY     68  41  37 E9        29.96F
HIBBING        PTSUNNY   70  48  45 CALM      29.96S
EVELETH        PTSUNNY   68  48  49 CALM      29.97S
DULUTH HARBOR  MOSUNNY   61  52  72 N10       29.98F
SILVER BAY     SUNNY     61  46  59 E6        29.97F
GRAND MARAIS     N/A     55  45  68 W5        29.99F
G MARAIS ARPRT MOSUNNY   57  43  58 S5        29.99F
$$
MNZ029>031-032-039>041-046>048-054>057-064-302200-
   West Central Minnesota

CITY           SKY/WX    TMP DP  RH WIND       PRES   REMARKS
FERGUS FALLS   CLOUDY    73  55  53 E3        29.91S
WHEATON        PTSUNNY   70  59  68 SE7       29.92F
MORRIS         CLOUDY    75  61  60 S8        29.91F
ALEXANDRIA     CLOUDY    74  54  49 E6        29.94F
ELBOW LAKE     FAIR      73  57  56 SE5       29.91F
WADENA         CLOUDY    73  57  56 NE3       29.93F
GLENWOOD       PTSUNNY   75  57  53 E6        29.94S
APPLETON       CLOUDY    73  61  64 CALM      29.92S
BENSON         CLOUDY    73  55  53 S5        29.92F
ORTONVILLE     CLOUDY    72  59  64 SE6       29.92F
MADISON        CLOUDY    72  61  68 S6        29.92F
WILLMAR        FAIR      77  57  50 CALM      29.93F
$$
MNZ033>034-036-042>043-049>051-058-059-302200-
   Central Minnesota

CITY           SKY/WX    TMP DP  RH WIND       PRES   REMARKS
ST CLOUD       PTSUNNY   76  55  48 CALM      29.93S
SAUK CENTRE    FAIR      74  56  53 E7        29.93F
PAYNESVILLE    MOSUNNY   73  54  51 NE7       29.93F
AITKIN         PTSUNNY   75  54  46 CALM      29.93F
PINE RIVER       N/A     75  55  50 CALM      29.97F
BRAINERD       CLOUDY    74  53  48 VRB5      29.94F
STAPLES        PTSUNNY   73  48  40 SE3       29.94S
LONG PRAIRIE   FAIR      72  54  53 E5        29.93F
LITTLE FALLS   PTSUNNY   73  52  46 SE3       29.93F
LITCHFIELD     MOSUNNY   79  57  47 E7        29.93F
BUFFALO        PTSUNNY   74  55  50 NE6       29.94F
MAPLE LAKE     PTSUNNY   74  58  55 N5        29.94F
$$
MNZ037-044-045-052-053-302200-
   East Central Minnesota

CITY           SKY/WX    TMP DP  RH WIND       PRES   REMARKS
PRINCETON      PTSUNNY   75  55  50 NE5       29.94S
MORA           CLOUDY    70  54  56 CALM      29.96S
CAMBRIDGE      PTSUNNY   73  59  60 NE5       29.92S
RUSH CITY      PTSUNNY   71  56  58 NE6       29.94S
MOOSE LAKE     PTSUNNY   68  59  73 SE3       29.94F
HINCKLEY       FAIR      70  55  60 NE6       29.95S
CLOQUET        MOSUNNY   64  50  59 SE6       29.97S
MCGREGOR       PTSUNNY   72  54  53 CALM      29.95S
$$
MNZ071>073-080-081-089-090-097-098-302200-
   Southwest Minnesota

CITY           SKY/WX    TMP DP  RH WIND       PRES   REMARKS
MONTEVIDEO     CLOUDY    72  61  68 CALM      29.93F
GRANITE FALLS  CLOUDY    72  58  62 CALM      29.94S
CANBY          CLOUDY    71  63  75 SE5       29.93F
MARSHALL       CLOUDY    70  61  73 SE6         N/A
REDWOOD FALLS  CLOUDY    74  59  59 E3        29.92F
OLIVIA         CLOUDY    72  54  53 CALM      29.92S
PIPESTONE      CLOUDY    73  63  68 SE6       29.94F
WINDOM         CLOUDY    72  61  68 CALM      29.94S
WORTHINGTON    CLOUDY    73  63  68 NE7       29.94S
JACKSON        CLOUDY    72  63  73 NE6       29.95S
TRACY          CLOUDY    71  63  76 E3        29.94F
SLAYTON        CLOUDY    71  62  74 CALM      29.95F
$$
MNZ065>067-074>077-082>085-091>093-302200-
   South Central Minnesota

CITY           SKY/WX    TMP DP  RH WIND       PRES   REMARKS
MANKATO        PTSUNNY   75  57  53 NE7       29.91F
NEW ULM        CLOUDY    73  57  56 E5        29.92F
ST JAMES       CLOUDY    73  61  64 CALM      29.93F
FAIRMONT       CLOUDY    73  57  56 N3        29.93S
GLENCOE        MOSUNNY   76  62  60 NE5       29.92S
FARIBAULT      MOSUNNY   75  57  53 NE5       29.93S
OWATONNA       MOSUNNY   73  55  53 N7        29.93R
WASECA         PTSUNNY   72  55  56 NE5       29.94R
ALBERT LEA     PTSUNNY   75  57  53 N8        29.92R
$$
MNZ078>079-086>088-094>096-302200-
   Southeast Minnesota

CITY           SKY/WX    TMP DP  RH WIND       PRES   REMARKS
ROCHESTER      MOSUNNY   72  59  63 NW7       29.92F
RED WING       MOSUNNY   75  52  43 N9        29.90S
STANTON        MOSUNNY   73  57  56 N7        29.91S
DODGE CENTER   MOSUNNY   72  57  60 NE6       29.93S
WINONA         MOSUNNY   73  55  53 N6        29.89F
AUSTIN         MOSUNNY   73  61  64 NE8       29.92R
PRESTON        MOSUNNY   70  58  66 N8        29.92F
$$
ABBREVIATIONS USED IN REMARKS
   TC - TEMPERATURES IN CELSIUS
  WCI - WIND CHILL INDEX
   HX - HEAT INDEX
  VSB - VISIBILITY
$$



USA.gov is the U.S. government's official web portal to all federal, state and local government web resources and services.